Fairfield, IA

3:25 AM CDT on July 23, 2017 (GMT -0500)
Fairfield Municipal

Weather History for KFFL - March, 2013

Change the Weather History Date:

Tuesday, March 5, 2013

  Actual Average Record
Temperature  
Mean Temperature 28 °F -  
Max Temperature 30 °F 43 °F 73 °F (2009)
Min Temperature 26 °F 25 °F -7 °F (1978)
Degree Days  
Heating Degree Days 37    
Moisture  
Dew Point 24 °F    
Average Humidity 81    
Maximum Humidity 93    
Minimum Humidity 69    
Precipitation  
Precipitation 0.05 in - - ()
Sea Level Pressure  
Sea Level Pressure 30.01 in    
Wind  
Wind Speed 13 mph (NW)    
Max Wind Speed 29 mph    
Max Gust Speed 36 mph    
Visibility 6 miles    
Events Snow    
Averages and records for this station are not official NWS values.
T = Trace of Precipitation, MM = Missing Value Source: NWS Daily Summary

Daily Weather History Graph

Daily Weather History Graph

Search for Another Location

Airport or City:

Trip Planner

Search our weather history database for the weather conditions in past years. The results will help you decide how hot, cold, wet, or windy it might be!

Date:

Astronomy

Mar. 05, 2013 Rise Set
Actual Time 6:35 AM CST 6:03 PM CST
Civil Twilight 6:07 AM CST 6:31 PM CST
Nautical Twilight 5:36 AM CST 7:03 PM CST
Astronomical Twilight 5:04 AM CST 7:35 PM CST
Moon 1:50 AM CST (3/5) 11:41 AM CST (3/5)
Length of Visible Light 12h 23m
Length of Day
11h 28m
Last Quarter, 40% of the Moon is Illuminated
Mar 5
Last Quarter
Mar 11
New
Mar 19
First Quarter
Mar 27
Full
Apr 2
Last Quarter

Hourly Weather History & Observations

Time (CST) Temp. Windchill Dew Point Humidity Pressure Visibility Wind Dir Wind Speed Gust Speed Precip Events Conditions
12:15 AM 30.2 °F 24.3 °F 26.6 °F 86% 29.92 in 5.0 mi NNE 5.8 mph - N/A Snow Light Snow
12:35 AM 30.2 °F 24.3 °F 26.6 °F 86% 29.92 in 2.0 mi NNE 5.8 mph - N/A Snow Light Snow
12:55 AM 30.2 °F 24.3 °F 26.6 °F 86% 29.92 in 3.0 mi North 5.8 mph - N/A Snow Light Snow
1:15 AM 30.2 °F 24.3 °F 26.6 °F 86% 29.92 in 3.0 mi North 5.8 mph - N/A Snow Light Snow
1:55 AM 30.2 °F 25.4 °F 26.6 °F 86% 29.92 in 1.2 mi North 4.6 mph - N/A Snow Light Snow
2:15 AM 30.2 °F 24.3 °F 26.6 °F 86% 29.91 in 1.0 mi North 5.8 mph - 0.01 in Snow Light Snow
2:35 AM 28.4 °F 22.2 °F 26.6 °F 93% 29.91 in 0.8 mi North 5.8 mph - 0.01 in Snow Light Snow
2:55 AM 28.4 °F 22.2 °F 26.6 °F 93% 29.90 in 1.0 mi North 5.8 mph - 0.01 in Snow Light Snow
3:15 AM 28.4 °F 22.2 °F 26.6 °F 93% 29.90 in 1.0 mi NNW 5.8 mph - N/A Snow Light Snow
3:35 AM 28.4 °F 21.2 °F 26.6 °F 93% 29.90 in 1.5 mi NNW 6.9 mph - 0.01 in Snow Light Snow
3:55 AM 28.4 °F 21.2 °F 26.6 °F 93% 29.90 in 0.8 mi NNW 6.9 mph - 0.01 in Snow Snow
4:15 AM 28.4 °F 21.2 °F 26.6 °F 93% 29.91 in 0.8 mi NW 6.9 mph - N/A Snow Snow
4:35 AM 28.4 °F 21.2 °F 26.6 °F 93% 29.91 in 1.0 mi NW 6.9 mph - N/A Snow Light Snow
4:55 AM 28.4 °F 21.2 °F 26.6 °F 93% 29.92 in 1.5 mi NW 6.9 mph - 0.01 in Snow Light Snow
5:15 AM 28.4 °F 20.4 °F 24.8 °F 86% 29.93 in 1.8 mi WNW 8.1 mph - N/A Snow Light Snow
5:35 AM 28.4 °F 20.4 °F 26.6 °F 93% 29.94 in 1.0 mi WNW 8.1 mph - N/A Snow Snow
5:55 AM 28.4 °F 19.1 °F 24.8 °F 86% 29.94 in 1.0 mi WNW 10.4 mph - N/A Snow Light Snow
6:15 AM 28.4 °F 19.7 °F 24.8 °F 86% 29.95 in 2.0 mi WNW 9.2 mph - 0.01 in Snow Light Snow
6:35 AM 28.4 °F 20.4 °F 24.8 °F 86% 29.94 in 2.5 mi WNW 8.1 mph - 0.01 in Snow Light Snow
7:15 AM 28.4 °F 19.1 °F 24.8 °F 86% 29.94 in 2.5 mi WNW 10.4 mph - N/A Snow Light Snow
7:35 AM 28.4 °F 18.0 °F 24.8 °F 86% 29.95 in 2.5 mi WNW 12.7 mph - 0.01 in Snow Light Snow
7:55 AM 28.4 °F 16.6 °F 24.8 °F 86% 29.95 in 2.5 mi WNW 16.1 mph - 0.01 in Snow Light Snow
8:15 AM 28.4 °F 18.0 °F 24.8 °F 86% 29.95 in 3.0 mi WNW 12.7 mph - N/A   Scattered Clouds
8:35 AM 28.4 °F 14.7 °F 24.8 °F 86% 29.96 in 7.0 mi WNW 21.9 mph 29.9 mph N/A   Overcast
8:55 AM 28.4 °F 15.8 °F 24.8 °F 86% 29.96 in 7.0 mi WNW 18.4 mph 26.5 mph N/A   Overcast
9:15 AM 28.4 °F 15.4 °F 24.8 °F 86% 29.96 in 7.0 mi WNW 19.6 mph 28.8 mph N/A   Overcast
9:35 AM 28.4 °F 15.1 °F 24.8 °F 86% 29.96 in 10.0 mi WNW 20.7 mph 26.5 mph N/A   Overcast
9:55 AM 28.4 °F 15.4 °F 23.0 °F 80% 29.96 in 10.0 mi WNW 19.6 mph 25.3 mph N/A   Overcast
10:15 AM 28.4 °F 15.8 °F 23.0 °F 80% 29.96 in 10.0 mi WNW 18.4 mph 23.0 mph N/A   Overcast
10:35 AM 30.2 °F 18.1 °F 23.0 °F 75% 29.96 in 10.0 mi WNW 18.4 mph 24.2 mph N/A   Overcast
10:55 AM 30.2 °F 18.1 °F 21.2 °F 69% 29.96 in 7.0 mi WNW 18.4 mph 27.6 mph N/A   Overcast
11:15 AM 28.4 °F 15.4 °F 21.2 °F 74% 29.97 in 7.0 mi WNW 19.6 mph 31.1 mph N/A   Overcast
11:35 AM 30.2 °F 16.8 °F 21.2 °F 69% 29.97 in 10.0 mi WNW 23.0 mph 26.5 mph N/A   Overcast
11:55 AM 30.2 °F 17.8 °F 21.2 °F 69% 29.97 in 10.0 mi WNW 19.6 mph 28.8 mph N/A   Overcast
12:15 PM 30.2 °F 18.5 °F 21.2 °F 69% 29.97 in 10.0 mi WNW 17.3 mph 26.5 mph N/A   Overcast
12:35 PM 30.2 °F 18.5 °F 21.2 °F 69% 29.97 in 10.0 mi WNW 17.3 mph 26.5 mph N/A   Overcast
12:55 PM 30.2 °F 17.8 °F 21.2 °F 69% 29.97 in 10.0 mi West 19.6 mph 25.3 mph N/A   Overcast
1:15 PM 30.2 °F 18.9 °F 23.0 °F 75% 29.97 in 10.0 mi WNW 16.1 mph 25.3 mph N/A   Overcast
1:35 PM 30.2 °F 18.1 °F 21.2 °F 69% 29.97 in 10.0 mi WNW 18.4 mph - N/A   Mostly Cloudy
1:55 PM 30.2 °F 17.1 °F 23.0 °F 75% 29.97 in 10.0 mi WNW 21.9 mph 25.3 mph N/A   Overcast
2:15 PM 30.2 °F 18.5 °F 21.2 °F 69% 29.98 in 10.0 mi WNW 17.3 mph 26.5 mph N/A   Overcast
2:35 PM 30.2 °F 17.1 °F 21.2 °F 69% 29.98 in 10.0 mi WNW 21.9 mph 27.6 mph N/A   Overcast
3:15 PM 30.2 °F 17.4 °F 24.8 °F 80% 29.99 in 4.0 mi WNW 20.7 mph 26.5 mph N/A Snow Light Snow
3:35 PM 28.4 °F 14.7 °F 24.8 °F 86% 30.00 in 2.0 mi WNW 21.9 mph 25.3 mph N/A Snow Light Snow
3:55 PM 28.4 °F 15.1 °F 24.8 °F 86% 30.00 in 2.0 mi WNW 20.7 mph - N/A Snow Light Snow
4:15 PM 28.4 °F 15.4 °F 24.8 °F 86% 30.01 in 2.5 mi WNW 19.6 mph 26.5 mph N/A Snow Light Snow
4:35 PM 28.4 °F 16.2 °F 24.8 °F 86% 30.02 in 5.0 mi WNW 17.3 mph 25.3 mph N/A   Overcast
4:55 PM 30.2 °F 18.5 °F 24.8 °F 80% 30.02 in 10.0 mi WNW 17.3 mph - N/A   Overcast
5:15 PM 30.2 °F 17.1 °F 24.8 °F 80% 30.03 in 7.0 mi NW 21.9 mph 26.5 mph N/A   Overcast
5:35 PM 30.2 °F 16.8 °F 24.8 °F 80% 30.04 in 5.0 mi NW 23.0 mph 29.9 mph N/A   Haze
5:55 PM 30.2 °F 16.5 °F 24.8 °F 80% 30.06 in 5.0 mi NW 24.2 mph - N/A   Haze
6:15 PM 30.2 °F 15.7 °F 24.8 °F 80% 30.07 in 5.0 mi NW 27.6 mph 35.7 mph N/A   Haze
6:35 PM 30.2 °F 16.5 °F 23.0 °F 75% 30.08 in 7.0 mi NW 24.2 mph 27.6 mph N/A   Overcast
6:55 PM 28.4 °F 14.7 °F 23.0 °F 80% 30.09 in 7.0 mi NW 21.9 mph 28.8 mph N/A   Overcast
7:15 PM 28.4 °F 13.8 °F 23.0 °F 80% 30.09 in 7.0 mi NNW 25.3 mph 32.2 mph N/A   Overcast
7:35 PM 28.4 °F 13.8 °F 21.2 °F 74% 30.11 in 5.0 mi NNW 25.3 mph 33.4 mph N/A   Haze
7:55 PM 28.4 °F 13.0 °F 21.2 °F 74% 30.11 in 4.0 mi NNW 28.8 mph 35.7 mph N/A   Haze
8:15 PM 28.4 °F 14.1 °F 21.2 °F 74% 30.13 in 5.0 mi NNW 24.2 mph 33.4 mph N/A   Haze
8:35 PM 28.4 °F 13.8 °F 21.2 °F 74% 30.14 in 5.0 mi NNW 25.3 mph 33.4 mph N/A   Haze
8:55 PM 28.4 °F 14.4 °F 21.2 °F 74% 30.14 in 7.0 mi NW 23.0 mph 32.2 mph N/A   Overcast
9:15 PM 28.4 °F 15.4 °F 21.2 °F 74% 30.15 in 10.0 mi NW 19.6 mph - N/A   Overcast
9:35 PM 28.4 °F 16.6 °F 21.2 °F 74% 30.16 in 10.0 mi NW 16.1 mph - N/A   Overcast
9:55 PM 28.4 °F 16.2 °F 21.2 °F 74% 30.17 in 10.0 mi NW 17.3 mph - N/A   Overcast
10:15 PM 28.4 °F 16.2 °F 21.2 °F 74% 30.18 in 10.0 mi NW 17.3 mph 24.2 mph N/A   Overcast
10:35 PM 26.6 °F 13.4 °F 21.2 °F 80% 30.19 in 10.0 mi NW 18.4 mph - N/A   Overcast
10:55 PM 26.6 °F 13.8 °F 21.2 °F 80% 30.20 in 10.0 mi NW 17.3 mph - N/A   Overcast
11:15 PM 26.6 °F 14.3 °F 21.2 °F 80% 30.19 in 10.0 mi NW 16.1 mph - N/A   Overcast
11:35 PM 26.6 °F 13.8 °F 21.2 °F 80% 30.20 in 10.0 mi NNW 17.3 mph 23.0 mph N/A   Overcast
11:55 PM 26.6 °F 15.7 °F 21.2 °F 80% 30.20 in 10.0 mi NW 12.7 mph - N/A   Overcast